CYGNUS NG-16 (49064 NORAD) Tracking and Keplerian Element Data

This shows tracking and keplerian element data for the satellite.

Feedback or suggestion? Click here.




ElementValue
Catalog49064
NameCYGNUS NG-16
Epoch Orbit30895
Epoch Day299.54274242
Epoch Year2021
RAAN53.2173
Inclination51.6438
Eccentricity0.0003869
Argument of Perigee142.7654
Mean Anonmoly322.6919
Mean Motion15.48793144
Decay Rate2.495E-05
L11 49064U 21072A 21299.54274242 .00002495 00000-0 53809-4 0 9997
L22 49064 51.6438 53.2173 0003869 142.7654 322.6919 15.48793144308951

Live tracking and technical data element details for CYGNUS NG-16 (NORAD 49064). CYGNUS NG-16 can be tracked NOW for your location showing map with azimuth and elevation plus other details from your city location.

Track the satellite on the map from your city or location and see movement details for azimuth, elevation, latitude, longitude, range, height, and movement on the map or in text.







IsCatalogInMostPopularTable: catalog: 49064, numindb: 12
Update: records affected: 1



GetName: 49064 CYGNUS NG-16

Hit Count: updated at: Thu, 28 Oct 2021 11:41:09 GMT